Location: Unspecified
(0.0000°N, 0.0000°E)
Time: 08:47:21
(UTC+00:00)

deb Delta 104 - Pass Details

Date: 11 March 2026
Orbit: 754 x 1064 km, 103.0° (Epoch: 20 April)

Event Time Altitude Azimuth Distance (km) Brightness Sun altitude
Rises 19:32:00 0° 172° (S) 3,774 ? -20.5°
Reaches altitude 10° 19:34:37 10° 176° (S) 2,787 ? -21.1°
Maximum altitude 19:40:42 55° 252° (WSW) 1,137 ? -22.6°
Drops below altitude 10° 19:46:20 10° 329° (NNW) 2,582 ? -24.1°
Sets 19:48:41 0° 334° (NNW) 3,475 ? -24.6°
